Regional Weather Roundup
Issued by NWS

Home | Current Version | Previous Version | Graphics & Text | Print | Product List | Glossary On
Versions: 1 2 3 4 5 6 7 8 9 10 11 12 13 14 15 16 17 18 19 20 21 22 23 24 25 26 27 28 29 30 31 32 33 34 35 36 37 38 39 40 41 42 43 44 45 46 47 48 49 50
000
ASUS43 KLSX 200359
RWRMO

WEATHER SUMMARY FOR MISSOURI
NATIONAL WEATHER SERVICE SPRINGFIELD MO
1000 PM CST FRI DEC 19 2014

NOTE: "FAIR" INDICATES FEW OR NO CLOUDS BELOW 12,000 FEET WITH NO
       SIGNIFICANT WEATHER AND/OR OBSTRUCTIONS TO VISIBILITY.
       CURRENT SKY AND/OR WEATHER CONDITIONS ARE NOT AVAILABLE FOR
       CHILLICOTHE AND FARMINGTON.

MOZ001>031-035>038-043-044-053-054-200500-
...NORTHERN AND WESTERN MISSOURI...

CITY           SKY/WX    TMP DP  RH WIND       PRES   REMARKS
KANSAS CTY INT DRZL/FOG  32  31  96 CALM      30.20S VSB 1
KANSAS C DTWN  CLOUDY    35  33  92 CALM      30.21F FOG
LEE`S SUMMIT   CLOUDY    34  33  96 CALM      30.21S FOG
ST JOSEPH      CLOUDY    32  29  88 SW3       30.21F
CHILLICOTHE      N/A     34  32  92 CALM      30.23F
KIRKSVILLE     CLOUDY    32  31  96 SE6       30.24R FOG     WCI  26

$$
MOZ066>068-077>081-088>096-101>105-200500-
...SOUTHWEST MISSOURI...

CITY           SKY/WX    TMP DP  RH WIND       PRES   REMARKS
SPRINGFIELD    CLOUDY    38  36  92 S8        30.19R FOG
JOPLIN         FOG       39  38  96 NW3       30.21R VSB 1/4

$$
MOZ032>034-039>042-045>050-055>058-069>072-200500-
...CENTRAL MISSOURI...

CITY           SKY/WX    TMP DP  RH WIND       PRES   REMARKS
COLUMBIA       CLOUDY    35  32  88 SE6       30.23R
JEFFERSON CITY CLOUDY    36  32  85 SE5       30.25R
ROLLA          CLOUDY    34  32  92 SE5       30.21R WCI  30
SEDALIA        CLOUDY    37  35  92 SE3       30.22R FOG
WARRENSBURG    CLOUDY    34  34 100 CALM      30.21F FOG
OSAGE BEACH    CLOUDY    37  34  87 SE3       30.22S

$$
MOZ051-052-059>065-200500-
...EAST CENTRAL MISSOURI...

CITY           SKY/WX    TMP DP  RH WIND       PRES   REMARKS
ST LOUIS INTL  CLOUDY    36  28  73 E6        30.27R
SPIRIT OF STL  CLOUDY    35  29  78 SE3       30.26R
ST CHARLES     CLOUDY    34  30  85 E5        30.27R WCI  30

$$
MOZ072>076-082>087-097>100-106>115-200500-
...SOUTH CENTRAL AND SOUTHEAST MISSOURI...

CITY           SKY/WX    TMP DP  RH WIND       PRES   REMARKS
CAPE GIRARDEAU CLOUDY    35  32  88 NE6       30.27S
FARMINGTON     CLOUDY    34  32  93 CALM      30.26R
POPLAR BLUFF   CLOUDY    37  32  82 CALM      30.26S
WEST PLAINS    CLOUDY    35  32  88 SE3       30.22S

$$



USA.gov is the U.S. government's official web portal to all federal, state and local government web resources and services.